This demonstration page uses our WeatherBlox Daily Observations layout. Learn more.

Left ArrowRight Arrow

34.16533, -84.80231

Hourly Observations for March 28, 2021

Temp ( °F °C ) Dew Point ( °F °C ) Humidity (%) Winds ( mph kmh ) Pressure ( in mb ) Visibility ( mi km ) Precip ( " mm )
12:53 am 00:53 Partly Cloudy 76 24.4 60 15.6 58 58 S 9 15 29.93 1013 10 16 0.00 0.00
1:53 am 01:53 Mostly Clear 75 23.9 59 15 58 58 S 7 11 29.91 1013 10 16 0.00 0.00
2:53 am 02:53 Cloudy 74 23.3 58 14.4 57 57 S 9 15 29.92 1013 10 16 0.00 0.00
3:53 am 03:53 Partly Cloudy 73 22.8 57 13.9 57 57 S 7 11 29.90 1013 10 16 0.00 0.00
4:53 am 04:53 Cloudy 73 22.8 59 15 62 62 S 13 20 29.88 1012 10 16 0.00 0.00
5:45 am 05:45 Cloudy 72 22.2 61 16.1 68 68 S 10 17 29.88 1012 10 16 0.00 0.00
5:53 am 05:53 Mostly Cloudy 71 21.7 61 16.1 71 71 VRB 7 11 29.86 1011 10 16 0.00 0.00
6:53 am 06:53 Cloudy 71 21.7 62 16.7 73 73 VRB 7 11 29.87 1012 10 16 0.00 0.00
7:02 am 07:02 Cloudy 71 21.7 62 16.7 73 73 VRB 3 6 29.89 1012 10 16 0.00 0.00
7:37 am 07:37 Mostly Cloudy 71 21.7 62 16.7 73 73 SSW 6 9 29.89 1012 10 16 0.00 0.00
7:53 am 07:53 Mostly Cloudy 71 21.7 62 16.7 73 73 VRB 7 11 29.87 1012 10 16 0.00 0.00
8:53 am 08:53 Mostly Cloudy 73 22.8 63 17.2 71 71 SSW 10 17 29.88 1012 10 16 0.00 0.00
9:43 am 09:43 Cloudy with Nearby Thunderstorms 73 22.8 63 17.2 71 71 VRB 3 6 29.91 1013 9 14 0.00 0.00
9:53 am 09:53 Cloudy with Thunderstorms 71 21.7 64 17.8 79 79 NNW 5 7 29.90 1013 3 5 0.03 0.76
9:58 am 09:58 Cloudy with Thunderstorms 68 20 64 17.8 87 87 undefined N/A 29.93 1014 2 2 0.14 3.56
10:07 am 10:07 Cloudy with Strong Thunderstorms 64 17.8 61 16.1 90 90 VRB 3 6 29.94 1014 1 1 0.48 12.19
10:16 am 10:16 Cloudy with Thunderstorms 64 17.8 61 16.1 90 90 VRB 5 7 29.93 1013 3 4 0.51 12.95
10:23 am 10:23 Cloudy with Rain 64 17.8 61 16.1 90 90 Calm 29.93 1013 3 5 0.52 13.21
10:53 am 10:53 Cloudy with Light Rain 64 17.8 61 16.1 90 90 S 5 7 29.90 1013 7 11 0.57 14.48
11:21 am 11:21 Cloudy 65 18.3 62 16.7 90 90 Calm 29.95 1014 10 16 0.01 0.25
11:35 am 11:35 Cloudy 65 18.3 62 16.7 90 90 Calm 29.95 1014 10 16 0.01 0.25
11:53 am 11:53 Cloudy 66 18.9 62 16.7 87 87 VRB 3 6 29.91 1013 10 16 0.01 0.25
12:16 pm 12:16 Cloudy 67 19.4 63 17.2 87 87 VRB 5 7 29.94 1014 10 16 0.00 0.00
12:53 pm 12:53 Cloudy 68 20 63 17.2 84 84 Calm 29.92 1013 10 16 0.00 0.00
1:53 pm 13:53 Cloudy with Light Rain 65 18.3 61 16.1 87 87 VRB 5 7 29.94 1014 8 13 0.01 0.25
1:56 pm 13:56 Cloudy 64 17.8 60 15.6 87 87 VRB 5 7 29.96 1014 9 14 0.00 0.00
2:03 pm 14:03 Cloudy 64 17.8 59 15 84 84 VRB 3 6 29.97 1015 10 16 0.00 0.00
2:53 pm 14:53 Cloudy 64 17.8 55 12.8 73 73 VRB 5 7 29.95 1014 10 16 0.00 0.00
3:12 pm 15:12 Cloudy 66 18.9 55 12.8 68 68 undefined N/A 29.97 1015 10 16 0.00 0.00
3:53 pm 15:53 Mostly Cloudy 65 18.3 54 12.2 68 68 VRB 6 9 29.96 1015 10 16 0.00 0.00
4:01 pm 16:01 Mostly Cloudy 65 18.3 54 12.2 68 68 VRB 3 6 29.98 1015 10 16 0.00 0.00
4:14 pm 16:14 Mostly Cloudy 66 18.9 53 11.7 63 63 VRB 6 9 29.97 1015 10 16 0.00 0.00
4:53 pm 16:53 Mostly Cloudy 65 18.3 51 10.6 61 61 VRB 6 9 29.97 1015 10 16 0.00 0.00
5:53 pm 17:53 Sunny 64 17.8 47 8.3 54 54 VRB 3 6 29.98 1015 10 16 0.00 0.00
6:26 pm 18:26 Mostly Sunny 64 17.8 44 6.7 48 48 undefined N/A 30.03 1017 10 16 0.00 0.00
6:53 pm 18:53 Sunny 64 17.8 44 6.7 48 48 VRB 3 6 30.01 1016 10 16 0.00 0.00
7:53 pm 19:53 Sunny 60 15.6 43 6.1 53 53 Calm 30.04 1017 10 16 0.00 0.00
8:53 pm 20:53 Clear 60 15.6 40 4.4 47 47 undefined N/A 30.07 1018 10 16 0.00 0.00
9:53 pm 21:53 Clear 58 14.4 37 2.8 46 46 NNW 5 7 30.12 1020 10 16 0.00 0.00
10:53 pm 22:53 Clear 55 12.8 35 1.7 47 47 NW 5 7 30.15 1021 10 16 0.00 0.00
11:53 pm 23:53 Clear 54 12.2 33 0.6 45 45 N 9 15 30.17 1022 10 16 0.00 0.00

Powered by AerisWeather